Year,Month,Day,Hour,Minute,Value (Times are PST for temperature in C)
2012,05,20,00,00,10.60
2012,05,20,00,01,10.60
2012,05,20,00,02,10.60
2012,05,20,00,03,10.60
2012,05,20,00,04,10.60
2012,05,20,00,05,10.60
2012,05,20,00,06,10.60
2012,05,20,00,07,10.60
2012,05,20,00,08,10.60
2012,05,20,00,09,10.60
2012,05,20,00,10,10.60
2012,05,20,00,11,10.60
2012,05,20,00,12,10.60
2012,05,20,00,18,10.60
2012,05,20,00,19,10.60
2012,05,20,00,20,10.60
2012,05,20,00,21,10.60
2012,05,20,00,22,10.60
2012,05,20,00,23,10.60
2012,05,20,00,24,10.60
2012,05,20,00,25,10.60
2012,05,20,00,26,10.60
2012,05,20,00,27,10.60
2012,05,20,00,28,10.60
2012,05,20,00,29,10.60
2012,05,20,00,30,10.60
2012,05,20,00,31,10.50
2012,05,20,00,32,10.50
2012,05,20,00,33,10.50
2012,05,20,00,34,10.50
2012,05,20,00,35,10.50
2012,05,20,00,36,10.40
2012,05,20,00,37,10.40
2012,05,20,00,38,10.40
2012,05,20,00,39,10.40
2012,05,20,00,40,10.40
2012,05,20,00,41,10.40
2012,05,20,00,42,10.30
2012,05,20,00,43,10.30
2012,05,20,00,44,10.30
2012,05,20,00,45,10.30
2012,05,20,00,46,10.30
2012,05,20,00,47,10.30
2012,05,20,00,48,10.20
2012,05,20,00,49,10.20
2012,05,20,00,50,10.20
2012,05,20,00,51,10.20
2012,05,20,00,52,10.10
2012,05,20,00,53,10.10
2012,05,20,00,54,10.10
2012,05,20,00,55,10.10
2012,05,20,00,56,10.00
2012,05,20,00,57,10.00
2012,05,20,00,58,10.00
2012,05,20,00,59,9.90
2012,05,20,01,00,9.90
2012,05,20,01,01,9.90
2012,05,20,01,02,9.90
2012,05,20,01,03,9.90
2012,05,20,01,04,9.80
2012,05,20,01,05,9.80
2012,05,20,01,06,9.80
2012,05,20,01,07,9.80
2012,05,20,01,08,9.80
2012,05,20,01,09,9.80
2012,05,20,01,10,9.80
2012,05,20,01,11,9.80
2012,05,20,01,12,9.80
2012,05,20,01,13,9.80
2012,05,20,01,14,9.70
2012,05,20,01,15,9.70
2012,05,20,01,16,9.70
2012,05,20,01,17,9.70
2012,05,20,01,18,9.70
2012,05,20,01,19,9.70
2012,05,20,01,20,9.70
2012,05,20,01,21,9.70
2012,05,20,01,22,9.70
2012,05,20,01,23,9.70
2012,05,20,01,24,9.70
2012,05,20,01,25,9.70
2012,05,20,01,26,9.60
2012,05,20,01,27,9.70
2012,05,20,01,28,9.70
2012,05,20,01,29,9.70
2012,05,20,01,30,9.70
2012,05,20,01,31,9.70
2012,05,20,01,32,9.70
2012,05,20,01,33,9.70
2012,05,20,01,34,9.70
2012,05,20,01,35,9.70
2012,05,20,01,36,9.70
2012,05,20,01,37,9.70
2012,05,20,01,38,9.70
2012,05,20,01,39,9.70
2012,05,20,01,40,9.70
2012,05,20,01,41,9.80
2012,05,20,01,42,9.80
2012,05,20,01,43,9.80
2012,05,20,01,44,9.80
2012,05,20,01,45,9.80
2012,05,20,01,46,9.80
2012,05,20,01,47,9.80
2012,05,20,01,48,9.80
2012,05,20,01,49,9.80
2012,05,20,01,50,9.80
2012,05,20,01,51,9.80
2012,05,20,01,52,9.80
2012,05,20,01,53,9.80
2012,05,20,01,54,9.80
2012,05,20,01,55,9.80
2012,05,20,01,56,9.80
2012,05,20,01,57,9.80
2012,05,20,01,58,9.90
2012,05,20,01,59,9.90
2012,05,20,02,00,9.90
2012,05,20,02,01,9.90
2012,05,20,02,02,9.90
2012,05,20,02,03,9.90
2012,05,20,02,04,9.90
2012,05,20,02,05,9.90
2012,05,20,02,06,9.90
2012,05,20,02,07,9.90
2012,05,20,02,08,9.90
2012,05,20,02,09,9.90
2012,05,20,02,10,9.90
2012,05,20,02,11,9.90
2012,05,20,02,12,9.90
2012,05,20,02,13,9.90
2012,05,20,02,14,10.00
2012,05,20,02,15,10.00
2012,05,20,02,16,10.00
2012,05,20,02,17,10.00
2012,05,20,02,18,10.00
2012,05,20,02,19,10.00
2012,05,20,02,20,10.00
2012,05,20,02,21,10.00
2012,05,20,02,22,10.00
2012,05,20,02,23,10.00
2012,05,20,02,24,10.00
2012,05,20,02,25,10.00
2012,05,20,02,26,10.00
2012,05,20,02,27,10.00
2012,05,20,02,28,10.00
2012,05,20,02,29,10.00
2012,05,20,02,30,10.00
2012,05,20,02,31,10.00
2012,05,20,02,32,10.00
2012,05,20,02,33,10.00
2012,05,20,02,34,10.00
2012,05,20,02,35,10.00
2012,05,20,02,36,9.90
2012,05,20,02,37,9.90
2012,05,20,02,38,9.90
2012,05,20,02,39,10.00
2012,05,20,02,40,9.90
2012,05,20,02,41,9.90
2012,05,20,02,42,9.90
2012,05,20,02,43,9.90
2012,05,20,02,44,9.90
2012,05,20,02,45,9.90
2012,05,20,02,46,9.90
2012,05,20,02,47,9.90
2012,05,20,02,48,9.90
2012,05,20,02,49,9.90
2012,05,20,02,50,9.90
2012,05,20,02,51,9.90
2012,05,20,02,52,9.90
2012,05,20,02,53,9.90
2012,05,20,02,54,9.90
2012,05,20,02,55,9.90
2012,05,20,02,56,9.90
2012,05,20,02,57,9.90
2012,05,20,02,58,9.90
2012,05,20,02,59,9.90
2012,05,20,03,00,9.90
2012,05,20,03,01,9.90
2012,05,20,03,02,9.90
2012,05,20,03,03,9.90
2012,05,20,03,04,9.90
2012,05,20,03,05,9.90
2012,05,20,03,06,9.90
2012,05,20,03,07,9.90
2012,05,20,03,08,9.90
2012,05,20,03,09,9.90
2012,05,20,03,10,9.90
2012,05,20,03,11,9.90
2012,05,20,03,12,9.90
2012,05,20,03,13,9.90
2012,05,20,03,14,9.90
2012,05,20,03,15,9.90
2012,05,20,03,16,9.90
2012,05,20,03,17,9.90
2012,05,20,03,18,9.90
2012,05,20,03,19,9.90
2012,05,20,03,20,9.90
2012,05,20,03,21,9.90
2012,05,20,03,22,9.90
2012,05,20,03,23,10.00
2012,05,20,03,24,10.00
2012,05,20,03,25,10.00
2012,05,20,03,26,10.00
2012,05,20,03,27,10.10
2012,05,20,03,28,10.10
2012,05,20,03,29,10.10
2012,05,20,03,30,10.10
2012,05,20,03,31,10.10
2012,05,20,03,32,10.10
2012,05,20,03,33,10.10
2012,05,20,03,34,10.10
2012,05,20,03,35,10.00
2012,05,20,03,36,10.10
2012,05,20,03,37,10.10
2012,05,20,03,38,10.10
2012,05,20,03,39,10.10
2012,05,20,03,40,10.10
2012,05,20,03,41,10.10
2012,05,20,03,42,10.10
2012,05,20,03,43,10.10
2012,05,20,03,44,10.00
2012,05,20,03,45,10.10
2012,05,20,03,46,10.10
2012,05,20,03,47,10.00
2012,05,20,03,48,10.00
2012,05,20,03,49,10.00
2012,05,20,03,50,10.00
2012,05,20,03,51,10.00
2012,05,20,03,52,10.00
2012,05,20,03,53,10.00
2012,05,20,03,54,10.00
2012,05,20,03,55,10.00
2012,05,20,03,56,10.00
2012,05,20,03,57,10.00
2012,05,20,03,58,10.00
2012,05,20,03,59,10.00
2012,05,20,04,00,10.00
2012,05,20,04,01,10.00
2012,05,20,04,02,10.00
2012,05,20,04,03,10.10
2012,05,20,04,04,10.10
2012,05,20,04,05,10.10
2012,05,20,04,06,10.10
2012,05,20,04,07,10.10
2012,05,20,04,08,10.10
2012,05,20,04,09,10.10
2012,05,20,04,10,10.10
2012,05,20,04,11,10.10
2012,05,20,04,12,10.10
2012,05,20,04,13,10.10
2012,05,20,04,14,10.10
2012,05,20,04,15,10.10
2012,05,20,04,16,10.10
2012,05,20,04,17,10.10
2012,05,20,04,18,10.10
2012,05,20,04,19,10.00
2012,05,20,04,20,10.00
2012,05,20,04,21,10.00
2012,05,20,04,22,10.00
2012,05,20,04,23,10.00
2012,05,20,04,24,10.00
2012,05,20,04,25,10.00
2012,05,20,04,26,10.00
2012,05,20,04,27,10.00
2012,05,20,04,28,10.00
2012,05,20,04,29,10.00
2012,05,20,04,30,10.00
2012,05,20,04,31,10.00
2012,05,20,04,32,10.00
2012,05,20,04,33,10.00
2012,05,20,04,34,10.00
2012,05,20,04,35,10.00
2012,05,20,04,36,10.00
2012,05,20,04,37,10.00
2012,05,20,04,38,10.00
2012,05,20,04,39,10.00
2012,05,20,04,40,10.00
2012,05,20,04,41,10.10
2012,05,20,04,42,10.00
2012,05,20,04,43,10.00
2012,05,20,04,44,10.10
2012,05,20,04,45,10.10
2012,05,20,04,46,10.10
2012,05,20,04,47,10.10
2012,05,20,04,48,10.10
2012,05,20,04,49,10.10
2012,05,20,04,50,10.10
2012,05,20,04,51,10.10
2012,05,20,04,52,10.10
2012,05,20,04,53,10.10
2012,05,20,04,54,10.10
2012,05,20,04,55,10.10
2012,05,20,04,56,10.10
2012,05,20,04,57,10.10
2012,05,20,04,58,10.10
2012,05,20,04,59,10.10
2012,05,20,05,00,10.10
2012,05,20,05,01,10.10
2012,05,20,05,02,10.10
2012,05,20,05,03,10.10
2012,05,20,05,04,10.10
2012,05,20,05,05,10.10
2012,05,20,05,06,10.10
2012,05,20,05,07,10.10
2012,05,20,05,08,10.10
2012,05,20,05,09,10.00
2012,05,20,05,10,10.10
2012,05,20,05,11,10.10
2012,05,20,05,12,10.10
2012,05,20,05,13,10.10
2012,05,20,05,14,10.10
2012,05,20,05,15,10.10
2012,05,20,05,16,10.10
2012,05,20,05,17,10.10
2012,05,20,05,18,10.10
2012,05,20,05,19,10.10
2012,05,20,05,20,10.10
2012,05,20,05,21,10.10
2012,05,20,05,22,10.10
2012,05,20,05,23,10.10
2012,05,20,05,24,10.10
2012,05,20,05,25,10.10
2012,05,20,05,26,10.10
2012,05,20,05,27,10.10
2012,05,20,05,28,10.10
2012,05,20,05,29,10.10
2012,05,20,05,30,10.10
2012,05,20,05,31,10.10
2012,05,20,05,32,10.10
2012,05,20,05,33,10.10
2012,05,20,05,34,10.10
2012,05,20,05,35,10.10
2012,05,20,05,36,10.10
2012,05,20,05,37,10.10
2012,05,20,05,38,10.10
2012,05,20,05,39,10.10
2012,05,20,05,40,10.10
2012,05,20,05,41,10.10
2012,05,20,05,42,10.00
2012,05,20,05,43,10.10
2012,05,20,05,44,10.00
2012,05,20,05,45,10.10
2012,05,20,05,46,10.10
2012,05,20,05,47,10.10
2012,05,20,05,48,10.10
2012,05,20,05,49,10.10
2012,05,20,05,50,10.10
2012,05,20,05,51,10.10
2012,05,20,05,52,10.10
2012,05,20,05,53,10.10
2012,05,20,05,54,10.10
2012,05,20,05,55,10.10
2012,05,20,05,56,10.10
2012,05,20,05,57,10.10
2012,05,20,05,58,10.10
2012,05,20,05,59,10.10
2012,05,20,06,00,10.10
2012,05,20,06,01,10.10
2012,05,20,06,02,10.10
2012,05,20,06,03,10.10
2012,05,20,06,04,10.10
2012,05,20,06,05,10.10
2012,05,20,06,06,10.10
2012,05,20,06,07,10.10
2012,05,20,06,08,10.10
2012,05,20,06,09,10.20
2012,05,20,06,10,10.20
2012,05,20,06,11,10.20
2012,05,20,06,12,10.20
2012,05,20,06,13,10.20
2012,05,20,06,14,10.20
2012,05,20,06,15,10.20
2012,05,20,06,16,10.20
2012,05,20,06,17,10.30
2012,05,20,06,18,10.30
2012,05,20,06,19,10.30
2012,05,20,06,20,10.30
2012,05,20,06,21,10.30
2012,05,20,06,22,10.30
2012,05,20,06,23,10.30
2012,05,20,06,24,10.30
2012,05,20,06,25,10.30
2012,05,20,06,26,10.30
2012,05,20,06,27,10.30
2012,05,20,06,28,10.30
2012,05,20,06,29,10.30
2012,05,20,06,30,10.30
2012,05,20,06,31,10.30
2012,05,20,06,32,10.30
2012,05,20,06,33,10.40
2012,05,20,06,34,10.40
2012,05,20,06,35,10.40
2012,05,20,06,36,10.40
2012,05,20,06,37,10.40
2012,05,20,06,38,10.40
2012,05,20,06,39,10.40
2012,05,20,06,40,10.40
2012,05,20,06,41,10.40
2012,05,20,06,42,10.40
2012,05,20,06,43,10.40
2012,05,20,06,44,10.50
2012,05,20,06,45,10.50
2012,05,20,06,46,10.50
2012,05,20,06,47,10.50
2012,05,20,06,48,10.50
2012,05,20,06,49,10.50
2012,05,20,06,50,10.50
2012,05,20,06,51,10.60
2012,05,20,06,52,10.60
2012,05,20,06,53,10.60
2012,05,20,06,54,10.60
2012,05,20,06,55,10.60
2012,05,20,06,56,10.70
2012,05,20,06,57,10.70
2012,05,20,06,58,10.70
2012,05,20,06,59,10.80
2012,05,20,07,00,10.80
2012,05,20,07,01,10.80
2012,05,20,07,02,10.80
2012,05,20,07,03,10.80
2012,05,20,07,04,10.80
2012,05,20,07,05,10.80
2012,05,20,07,06,10.80
2012,05,20,07,07,10.90
2012,05,20,07,08,10.90
2012,05,20,07,09,10.90
2012,05,20,07,10,10.90
2012,05,20,07,11,10.90
2012,05,20,07,12,10.90
2012,05,20,07,13,10.90
2012,05,20,07,14,10.90
2012,05,20,07,15,10.90
2012,05,20,07,16,10.90
2012,05,20,07,17,10.90
2012,05,20,07,18,10.90
2012,05,20,07,19,10.90
2012,05,20,07,20,11.00
2012,05,20,07,21,11.00
2012,05,20,07,22,11.00
2012,05,20,07,23,11.00
2012,05,20,07,24,11.10
2012,05,20,07,25,11.10
2012,05,20,07,26,11.10
2012,05,20,07,27,11.10
2012,05,20,07,28,11.10
2012,05,20,07,29,11.10
2012,05,20,07,30,11.10
2012,05,20,07,31,11.10
2012,05,20,07,32,11.10
2012,05,20,07,33,11.10
2012,05,20,07,34,11.10
2012,05,20,07,35,11.20
2012,05,20,07,36,11.20
2012,05,20,07,37,11.20
2012,05,20,07,38,11.20
2012,05,20,07,39,11.20
2012,05,20,07,40,11.20
2012,05,20,07,41,11.20
2012,05,20,07,42,11.20
2012,05,20,07,43,11.20
2012,05,20,07,44,11.30
2012,05,20,07,45,11.30
2012,05,20,07,46,11.30
2012,05,20,07,47,11.30
2012,05,20,07,48,11.30
2012,05,20,07,49,11.30
2012,05,20,07,50,11.30
2012,05,20,07,51,11.30
2012,05,20,07,52,11.40
2012,05,20,07,53,11.40
2012,05,20,07,54,11.40
2012,05,20,07,55,11.40
2012,05,20,07,56,11.40
2012,05,20,07,57,11.40
2012,05,20,07,58,11.40
2012,05,20,07,59,11.40
2012,05,20,08,00,11.40
2012,05,20,08,01,11.40
2012,05,20,08,02,11.40
2012,05,20,08,03,11.40
2012,05,20,08,04,11.40
2012,05,20,08,05,11.40
2012,05,20,08,06,11.50
2012,05,20,08,07,11.50
2012,05,20,08,08,11.50
2012,05,20,08,09,11.60
2012,05,20,08,10,11.60
2012,05,20,08,11,11.60
2012,05,20,08,12,11.60
2012,05,20,08,13,11.70
2012,05,20,08,14,11.70
2012,05,20,08,15,11.70
2012,05,20,08,16,11.80
2012,05,20,08,17,11.80
2012,05,20,08,18,11.80
2012,05,20,08,19,11.80
2012,05,20,08,20,11.80
2012,05,20,08,21,11.90
2012,05,20,08,22,11.90
2012,05,20,08,23,11.90
2012,05,20,08,24,11.90
2012,05,20,08,25,12.00
2012,05,20,08,26,12.00
2012,05,20,08,27,12.10
2012,05,20,08,28,12.10
2012,05,20,08,29,12.10
2012,05,20,08,30,12.20
2012,05,20,08,31,12.20
2012,05,20,08,32,12.20
2012,05,20,08,33,12.20
2012,05,20,08,34,12.20
2012,05,20,08,35,12.30
2012,05,20,08,36,12.30
2012,05,20,08,37,12.30
2012,05,20,08,38,12.30
2012,05,20,08,39,12.40
2012,05,20,08,40,12.40
2012,05,20,08,41,12.40
2012,05,20,08,42,12.40
2012,05,20,08,43,12.50
2012,05,20,08,44,12.50
2012,05,20,08,45,12.60
2012,05,20,08,46,12.60
2012,05,20,08,47,12.60
2012,05,20,08,48,12.60
2012,05,20,08,49,12.60
2012,05,20,08,50,12.60
2012,05,20,08,51,12.70
2012,05,20,08,52,12.70
2012,05,20,08,53,12.70
2012,05,20,08,54,12.70
2012,05,20,08,55,12.70
2012,05,20,08,56,12.80
2012,05,20,08,57,12.80
2012,05,20,08,58,12.80
2012,05,20,08,59,12.80
2012,05,20,09,00,12.80
2012,05,20,09,01,12.80
2012,05,20,09,02,12.80
2012,05,20,09,03,12.80
2012,05,20,09,04,12.80
2012,05,20,09,05,12.80
2012,05,20,09,06,12.80
2012,05,20,09,07,12.80
2012,05,20,09,08,12.80
2012,05,20,09,09,12.90
2012,05,20,09,10,12.90
2012,05,20,09,11,12.90
2012,05,20,09,12,12.90
2012,05,20,09,13,13.00
2012,05,20,09,14,13.00
2012,05,20,09,15,13.00
2012,05,20,09,16,13.00
2012,05,20,09,17,13.10
2012,05,20,09,18,13.10
2012,05,20,09,19,13.10
2012,05,20,09,20,13.20
2012,05,20,09,21,13.20
2012,05,20,09,22,13.30
2012,05,20,09,23,13.30
2012,05,20,09,24,13.30
2012,05,20,09,25,13.40
2012,05,20,09,26,13.40
2012,05,20,09,27,13.40
2012,05,20,09,28,13.40
2012,05,20,09,29,13.40
2012,05,20,09,30,13.40
2012,05,20,09,31,13.40
2012,05,20,09,32,13.30
2012,05,20,09,33,13.20
2012,05,20,09,34,13.20
2012,05,20,09,35,13.10
2012,05,20,09,36,13.10
2012,05,20,09,37,13.20
2012,05,20,09,38,13.20
2012,05,20,09,39,13.20
2012,05,20,09,40,13.20
2012,05,20,09,41,13.20
2012,05,20,09,42,13.20
2012,05,20,09,43,13.20
2012,05,20,09,44,13.20
2012,05,20,09,45,13.20
2012,05,20,09,46,13.20
2012,05,20,09,47,13.20
2012,05,20,09,48,13.20
2012,05,20,09,49,13.30
2012,05,20,09,50,13.30
2012,05,20,09,51,13.30
2012,05,20,09,52,13.40
2012,05,20,09,53,13.40
2012,05,20,09,54,13.40
2012,05,20,09,55,13.30
2012,05,20,09,56,13.30
2012,05,20,09,57,13.30
2012,05,20,09,58,13.30
2012,05,20,09,59,13.30
2012,05,20,10,00,13.30
2012,05,20,10,01,13.30
2012,05,20,10,02,13.30
2012,05,20,10,03,13.30
2012,05,20,10,04,13.30
2012,05,20,10,05,13.30
2012,05,20,10,06,13.40
2012,05,20,10,07,13.40
2012,05,20,10,08,13.50
2012,05,20,10,09,13.50
2012,05,20,10,10,13.50
2012,05,20,10,11,13.50
2012,05,20,10,12,13.50
2012,05,20,10,13,13.60
2012,05,20,10,14,13.60
2012,05,20,10,15,13.70
2012,05,20,10,16,13.70
2012,05,20,10,17,13.70
2012,05,20,10,18,13.60
2012,05,20,10,19,13.50
2012,05,20,10,20,13.40
2012,05,20,10,21,13.40
2012,05,20,10,22,13.30
2012,05,20,10,23,13.30
2012,05,20,10,24,13.20
2012,05,20,10,25,13.20
2012,05,20,10,26,13.20
2012,05,20,10,27,13.20
2012,05,20,10,28,13.20
2012,05,20,10,29,13.30
2012,05,20,10,30,13.30
2012,05,20,10,31,13.30
2012,05,20,10,32,13.30
2012,05,20,10,33,13.30
2012,05,20,10,34,13.20
2012,05,20,10,35,13.20
2012,05,20,10,36,13.10
2012,05,20,10,37,13.10
2012,05,20,10,38,13.00
2012,05,20,10,39,12.90
2012,05,20,10,40,12.90
2012,05,20,10,41,12.90
2012,05,20,10,42,12.80
2012,05,20,10,43,12.80
2012,05,20,10,44,12.70
2012,05,20,10,45,12.70
2012,05,20,10,46,12.60
2012,05,20,10,47,12.60
2012,05,20,10,48,12.60
2012,05,20,10,49,12.60
2012,05,20,10,50,12.60
2012,05,20,10,51,12.60
2012,05,20,10,52,12.60
2012,05,20,10,53,12.60
2012,05,20,10,54,12.60
2012,05,20,10,55,12.50
2012,05,20,10,56,12.50
2012,05,20,10,57,12.50
2012,05,20,10,58,12.50
2012,05,20,10,59,12.50
2012,05,20,11,00,12.50
2012,05,20,11,01,12.50
2012,05,20,11,02,12.50
2012,05,20,11,03,12.60
2012,05,20,11,04,12.60
2012,05,20,11,05,12.70
2012,05,20,11,06,12.70
2012,05,20,11,07,12.70
2012,05,20,11,08,12.70
2012,05,20,11,09,12.70
2012,05,20,11,10,12.80
2012,05,20,11,11,12.80
2012,05,20,11,12,12.80
2012,05,20,11,13,12.80
2012,05,20,11,14,12.80
2012,05,20,11,15,12.80
2012,05,20,11,16,12.90
2012,05,20,11,17,12.90
2012,05,20,11,18,12.90
2012,05,20,11,19,13.00
2012,05,20,11,20,13.00
2012,05,20,11,21,13.10
2012,05,20,11,22,13.10
2012,05,20,11,23,13.10
2012,05,20,11,24,13.10
2012,05,20,11,25,13.10
2012,05,20,11,26,13.20
2012,05,20,11,27,13.10
2012,05,20,11,28,13.10
2012,05,20,11,29,13.00
2012,05,20,11,30,13.00
2012,05,20,11,31,12.90
2012,05,20,11,32,12.90
2012,05,20,11,33,13.00
2012,05,20,11,34,13.00
2012,05,20,11,35,13.10
2012,05,20,11,36,13.10
2012,05,20,11,37,13.10
2012,05,20,11,38,13.10
2012,05,20,11,39,13.10
2012,05,20,11,40,13.10
2012,05,20,11,41,13.00
2012,05,20,11,42,13.00
2012,05,20,11,43,13.10
2012,05,20,11,44,13.10
2012,05,20,11,45,13.10
2012,05,20,11,46,13.00
2012,05,20,11,47,13.00
2012,05,20,11,48,13.10
2012,05,20,11,49,13.00
2012,05,20,11,50,13.00
2012,05,20,11,51,13.00
2012,05,20,11,52,13.10
2012,05,20,11,53,13.10
2012,05,20,11,54,13.10
2012,05,20,11,55,13.20
2012,05,20,11,56,13.20
2012,05,20,11,57,13.20
2012,05,20,11,58,13.20
2012,05,20,11,59,13.20
2012,05,20,12,00,13.10
2012,05,20,12,01,13.10
2012,05,20,12,02,13.10
2012,05,20,12,03,13.10
2012,05,20,12,04,13.10
2012,05,20,12,05,13.00
2012,05,20,12,06,13.00
2012,05,20,12,07,13.10
2012,05,20,12,08,13.10
2012,05,20,12,09,13.20
2012,05,20,12,10,13.20
2012,05,20,12,11,13.30
2012,05,20,12,12,13.40
2012,05,20,12,13,13.50
2012,05,20,12,14,13.50
2012,05,20,12,15,13.40
2012,05,20,12,16,13.30
2012,05,20,12,17,13.30
2012,05,20,12,18,13.30
2012,05,20,12,19,13.40
2012,05,20,12,20,13.50
2012,05,20,12,21,13.50
2012,05,20,12,22,13.60
2012,05,20,12,23,13.60
2012,05,20,12,24,13.70
2012,05,20,12,25,13.80
2012,05,20,12,26,13.90
2012,05,20,12,27,13.90
2012,05,20,12,28,13.80
2012,05,20,12,29,13.70
2012,05,20,12,30,13.70
2012,05,20,12,31,13.70
2012,05,20,12,32,13.80
2012,05,20,12,33,13.80
2012,05,20,12,34,13.80
2012,05,20,12,35,13.90
2012,05,20,12,36,13.90
2012,05,20,12,37,13.90
2012,05,20,12,38,13.90
2012,05,20,12,39,14.00
2012,05,20,12,40,14.10
2012,05,20,12,41,14.10
2012,05,20,12,42,14.20
2012,05,20,12,43,14.20
2012,05,20,12,44,14.20
2012,05,20,12,45,14.20
2012,05,20,12,46,14.20
2012,05,20,12,47,14.10
2012,05,20,12,48,14.00
2012,05,20,12,49,13.90
2012,05,20,12,50,13.90
2012,05,20,12,51,13.80
2012,05,20,12,52,13.90
2012,05,20,12,53,13.90
2012,05,20,12,54,13.90
2012,05,20,12,55,13.90
2012,05,20,12,56,13.90
2012,05,20,12,57,13.90
2012,05,20,12,58,13.90
2012,05,20,12,59,13.90
2012,05,20,13,00,13.80
2012,05,20,13,01,13.70
2012,05,20,13,02,13.70
2012,05,20,13,03,13.70
2012,05,20,13,04,13.70
2012,05,20,13,05,13.80
2012,05,20,13,06,13.80
2012,05,20,13,07,13.80
2012,05,20,13,08,13.70
2012,05,20,13,09,13.60
2012,05,20,13,10,13.60
2012,05,20,13,11,13.60
2012,05,20,13,12,13.50
2012,05,20,13,13,13.50
2012,05,20,13,14,13.40
2012,05,20,13,15,13.40
2012,05,20,13,16,13.40
2012,05,20,13,17,13.40
2012,05,20,13,18,13.40
2012,05,20,13,19,13.40
2012,05,20,13,20,13.40
2012,05,20,13,21,13.40
2012,05,20,13,22,13.40
2012,05,20,13,23,13.50
2012,05,20,13,24,13.50
2012,05,20,13,25,13.60
2012,05,20,13,26,13.70
2012,05,20,13,27,13.70
2012,05,20,13,28,13.70
2012,05,20,13,29,13.70
2012,05,20,13,30,13.70
2012,05,20,13,31,13.70
2012,05,20,13,32,13.70
2012,05,20,13,33,13.70
2012,05,20,13,34,13.80
2012,05,20,13,35,13.80
2012,05,20,13,36,13.80
2012,05,20,13,37,13.80
2012,05,20,13,38,13.80
2012,05,20,13,39,13.90
2012,05,20,13,40,13.90
2012,05,20,13,41,14.00
2012,05,20,13,42,14.00
2012,05,20,13,43,14.10
2012,05,20,13,44,14.10
2012,05,20,13,45,14.10
2012,05,20,13,46,14.10
2012,05,20,13,47,14.10
2012,05,20,13,48,14.10
2012,05,20,13,49,14.00
2012,05,20,13,50,14.00
2012,05,20,13,51,14.00
2012,05,20,13,52,14.00
2012,05,20,13,53,14.00
2012,05,20,13,54,14.00
2012,05,20,13,55,14.10
2012,05,20,13,56,14.10
2012,05,20,13,57,14.10
2012,05,20,13,58,14.20
2012,05,20,13,59,14.20
2012,05,20,14,00,14.20
2012,05,20,14,01,14.10
2012,05,20,14,02,14.10
2012,05,20,14,03,14.10
2012,05,20,14,04,14.10
2012,05,20,14,05,14.20
2012,05,20,14,06,14.20
2012,05,20,14,07,14.20
2012,05,20,14,08,14.20
2012,05,20,14,09,14.20
2012,05,20,14,10,14.20
2012,05,20,14,11,14.20
2012,05,20,14,12,14.30
2012,05,20,14,13,14.30
2012,05,20,14,14,14.30
2012,05,20,14,15,14.30
2012,05,20,14,16,14.40
2012,05,20,14,17,14.40
2012,05,20,14,18,14.40
2012,05,20,14,19,14.30
2012,05,20,14,20,14.30
2012,05,20,14,21,14.30
2012,05,20,14,22,14.30
2012,05,20,14,23,14.20
2012,05,20,14,24,14.20
2012,05,20,14,25,14.30
2012,05,20,14,26,14.30
2012,05,20,14,27,14.30
2012,05,20,14,28,14.40
2012,05,20,14,29,14.40
2012,05,20,14,30,14.50
2012,05,20,14,31,14.50
2012,05,20,14,32,14.60
2012,05,20,14,33,14.60
2012,05,20,14,34,14.70
2012,05,20,14,35,14.70
2012,05,20,14,36,14.60
2012,05,20,14,37,14.60
2012,05,20,14,38,14.50
2012,05,20,14,39,14.40
2012,05,20,14,40,14.40
2012,05,20,14,41,14.30
2012,05,20,14,42,14.20
2012,05,20,14,43,14.20
2012,05,20,14,44,14.20
2012,05,20,14,45,14.10
2012,05,20,14,46,14.10
2012,05,20,14,47,14.00
2012,05,20,14,48,14.00
2012,05,20,14,49,14.00
2012,05,20,14,50,14.00
2012,05,20,14,51,14.00
2012,05,20,14,52,14.00
2012,05,20,14,53,13.90
2012,05,20,14,54,13.90
2012,05,20,14,55,13.90
2012,05,20,14,56,13.90
2012,05,20,14,57,13.90
2012,05,20,14,58,13.90
2012,05,20,14,59,14.00
2012,05,20,15,00,13.90
2012,05,20,15,01,13.90
2012,05,20,15,02,14.00
2012,05,20,15,03,14.00
2012,05,20,15,04,14.00
2012,05,20,15,05,14.00
2012,05,20,15,06,14.00
2012,05,20,15,07,14.10
2012,05,20,15,08,14.00
2012,05,20,15,09,14.00
2012,05,20,15,10,14.00
2012,05,20,15,11,14.00
2012,05,20,15,12,13.90
2012,05,20,15,13,13.90
2012,05,20,15,14,13.80
2012,05,20,15,15,13.80
2012,05,20,15,16,13.70
2012,05,20,15,17,13.70
2012,05,20,15,18,13.70
2012,05,20,15,19,13.70
2012,05,20,15,20,13.70
2012,05,20,15,21,13.80
2012,05,20,15,22,13.80
2012,05,20,15,23,13.80
2012,05,20,15,24,13.80
2012,05,20,15,25,13.80
2012,05,20,15,26,13.80
2012,05,20,15,27,13.80
2012,05,20,15,28,13.80
2012,05,20,15,29,13.80
2012,05,20,15,30,13.80
2012,05,20,15,31,13.80
2012,05,20,15,32,13.80
2012,05,20,15,33,13.80
2012,05,20,15,34,13.80
2012,05,20,15,35,13.80
2012,05,20,15,36,13.80
2012,05,20,15,37,13.80
2012,05,20,15,38,13.80
2012,05,20,15,39,13.70
2012,05,20,15,40,13.70
2012,05,20,15,41,13.70
2012,05,20,15,42,13.70
2012,05,20,15,43,13.70
2012,05,20,15,44,13.70
2012,05,20,15,45,13.70
2012,05,20,15,46,13.70
2012,05,20,15,47,13.70
2012,05,20,15,48,13.70
2012,05,20,15,49,13.70
2012,05,20,15,50,13.70
2012,05,20,15,51,13.60
2012,05,20,15,52,13.60
2012,05,20,15,53,13.60
2012,05,20,15,54,13.60
2012,05,20,15,55,13.60
2012,05,20,15,56,13.60
2012,05,20,15,57,13.60
2012,05,20,15,58,13.60
2012,05,20,15,59,13.60
2012,05,20,16,00,13.60
2012,05,20,16,01,13.60
2012,05,20,16,02,13.70
2012,05,20,16,03,13.70
2012,05,20,16,04,13.70
2012,05,20,16,05,13.70
2012,05,20,16,06,13.70
2012,05,20,16,07,13.80
2012,05,20,16,08,13.80
2012,05,20,16,09,13.80
2012,05,20,16,10,13.90
2012,05,20,16,11,13.90
2012,05,20,16,12,14.00
2012,05,20,16,13,14.00
2012,05,20,16,14,14.00
2012,05,20,16,15,14.10
2012,05,20,16,16,14.10
2012,05,20,16,17,14.10
2012,05,20,16,18,14.10
2012,05,20,16,19,14.10
2012,05,20,16,20,14.20
2012,05,20,16,21,14.20
2012,05,20,16,22,14.20
2012,05,20,16,23,14.20
2012,05,20,16,24,14.20
2012,05,20,16,25,14.20
2012,05,20,16,26,14.20
2012,05,20,16,27,14.20
2012,05,20,16,28,14.30
2012,05,20,16,29,14.30
2012,05,20,16,30,14.30
2012,05,20,16,31,14.30
2012,05,20,16,32,14.30
2012,05,20,16,33,14.30
2012,05,20,16,34,14.30
2012,05,20,16,35,14.30
2012,05,20,16,36,14.30
2012,05,20,16,37,14.20
2012,05,20,16,38,14.10
2012,05,20,16,39,14.10
2012,05,20,16,40,14.10
2012,05,20,16,41,14.10
2012,05,20,16,42,14.10
2012,05,20,16,43,14.10
2012,05,20,16,44,14.10
2012,05,20,16,45,14.10
2012,05,20,16,46,14.10
2012,05,20,16,47,14.10
2012,05,20,16,48,14.00
2012,05,20,16,49,14.00
2012,05,20,16,50,14.00
2012,05,20,16,51,14.00
2012,05,20,16,52,14.00
2012,05,20,16,53,14.00
2012,05,20,16,54,14.00
2012,05,20,16,55,14.00
2012,05,20,16,56,13.90
2012,05,20,16,57,13.90
2012,05,20,16,58,13.90
2012,05,20,16,59,13.90
2012,05,20,17,00,13.90
2012,05,20,17,01,13.80
2012,05,20,17,02,13.80
2012,05,20,17,03,13.70
2012,05,20,17,04,13.70
2012,05,20,17,05,13.70
2012,05,20,17,06,13.70
2012,05,20,17,07,13.70
2012,05,20,17,08,13.60
2012,05,20,17,09,13.60
2012,05,20,17,10,13.60
2012,05,20,17,11,13.60
2012,05,20,17,12,13.60
2012,05,20,17,13,13.60
2012,05,20,17,14,13.60
2012,05,20,17,15,13.60
2012,05,20,17,16,13.60
2012,05,20,17,17,13.60
2012,05,20,17,18,13.60
2012,05,20,17,19,13.70
2012,05,20,17,20,13.70
2012,05,20,17,21,13.70
2012,05,20,17,22,13.70
2012,05,20,17,23,13.70
2012,05,20,17,24,13.70
2012,05,20,17,25,13.80
2012,05,20,17,26,13.80
2012,05,20,17,27,13.80
2012,05,20,17,28,13.80
2012,05,20,17,29,13.80